• Join FlightAware (Why Join?)
  • Login
  • US Flag 
03:41PM EDT


 

Airport Tracker/Info


-or-


 

Live Flight TrackerFlight Track Log ✈ SWA983 ✈ 15-Apr-2013 ✈ KBWI - KISP

Flight Track Log - Related Links

Times and Time Zones

All times are in EDT time to prevent confusion due to time zone crossing. See the SWA983 flight status page for this flight to view local times or setup timezone preferences in your user account.

Time Position Orientation Groundspeed Altitude Reporting Facility
EDT Latitude Longitude Course Direction KTS MPH feet Rate Location/Type
03:21PM 39.1400 -76.6486 120° Southeast 168 193 2,000  Level Washington Center
03:22PM 39.1114 -76.5842 120° Southeast 182 209 4,400 2,520 Climbing Washington Center
03:23PM 39.0869 -76.5222 117° Southeast 208 239 7,100 3,060 Climbing Washington Center
03:24PM 39.0439 -76.4175 118° Southeast 252 290 10,600 3,300 Climbing Washington Center
03:25PM 39.0322 -76.2969 97° East 301 346 13,700 3,000 Climbing Washington Center
03:26PM 39.0392 -76.1689 86° East 337 388 16,600 2,520 Climbing Washington Center
03:27PM 39.0458 -76.0300 86° East 354 407 18,800 1,200 Climbing Washington Center
03:28PM 39.0547 -75.8803 86° East 390 449 19,000 60 Climbing Washington Center
03:29PM 39.0611 -75.7386 87° East 395 455 19,000  Level Washington Center
03:30PM 39.0656 -75.5969 88° East 401 461 19,000  Level Washington Center
03:31PM 39.0717 -75.4525 87° East 401 461 19,000 900 Level Washington Center
03:32PM 39.0756 -75.3108 88° East 401 461 20,800 960 Climbing Washington Center
03:33PM 39.0833 -75.1719 86° East 396 456 21,000 60 Climbing Washington Center
03:34PM 39.0869 -75.0300 88° East 391 450 21,000  Level Washington Center
03:35PM 39.1300 -74.9067 66° East 372 428 21,000  Level Washington Center
03:36PM 39.1900 -74.7964 55° Northeast 367 422 21,000  Level Washington Center
03:37PM 39.2494 -74.6803 57° Northeast 377 434 21,000  Level Washington Center
03:38PM 39.2839 -74.6119 57° Northeast 381 438 21,000  Level New York Center
03:39PM 39.3506 -74.4839 56° Northeast 387 445 21,000  Level New York Center
03:40PM 39.4083 -74.3714 56° Northeast 382 440 21,000  Level New York Center
03:41PM 39.4661 -74.2533 58° Northeast 382 440 21,000  Level New York Center
03:42PM 39.5278 -74.1378 55° Northeast 382 440 21,000 -120 Level New York Center
03:43PM 39.5711 -74.0081 67° East 382 440 20,800 -660 Descending New York Center
03:44PM 39.6097 -73.8858 68° East 377 434 19,700 -1,080 Descending New York Center
03:45PM 39.6547 -73.7639 64° Northeast 372 428 18,700 -840 Descending New York Center
03:46PM 39.6992 -73.6469 64° Northeast 367 422 18,100 -840 Descending New York Center
03:47PM 39.7658 -73.5633 44° Northeast 342 394 17,100 -1,320 Descending New York Center
03:48PM 39.8406 -73.4906 37° Northeast 337 388 15,500 -1,080 Descending New York Center
03:49PM 39.9067 -73.4228 38° Northeast 332 382 15,000 -1,320 Descending New York Center
03:51PM 40.0719 -73.2589 37° Northeast 322 371 11,400 -1,560 Descending Boston Center
03:52PM 40.1431 -73.1864 38° Northeast 322 371 10,000 -1,200 Descending Boston Center
03:53PM 40.2061 -73.1219 38° Northeast 311 358 9,000 -540 Descending Boston Center
03:54PM 40.2689 -73.0600 37° Northeast 294 338 9,000 -780 Level Boston Center
03:56PM 40.3833 -72.9500 36° Northeast 281 323 6,900 -1,260 Descending New York TRACON
03:57PM 40.4500 -72.9833 339° North 261 300 5,600 -1,380 Descending New York TRACON
03:58PM 40.5167 -73.0333 330° Northwest 255 293 4,200 -1,260 Descending New York TRACON
03:59PM 40.5833 -73.0833 330° Northwest 259 298 3,200 -660 Descending New York TRACON
04:00PM 40.6333 -73.1167 333° Northwest 252 290 2,900 -600 Descending New York TRACON
04:01PM 40.7000 -73.1500 339° North 230 265 2,100 -720 Descending New York TRACON
04:02PM 40.7500 -73.1667 346° North 168 193 1,500 -720 Descending New York TRACON
04:03PM 40.7667 -73.1333 57° Northeast 138 159 600 -960 Descending New York TRACON